www.pogodaiklimat.ru

Погода и климат >> Архив погоды >> Кувейт >> Абдали


ПОГОДА в Абдали

  • Прогноз погоды в Абдали
  • Монитор погоды в Абдали

АРХИВ ПОГОДЫ в Абдали

Время (UTC), дата Ветер
(напр.,м/с)
 
Видим.   Явления Облачность Т
(С)
Тd
(С)
f
(%)
Тe
(С)
Тes
(С)
Комфортность P
(гПа)
Po
(гПа)
Тmin
(С)
Tmax
(С)
R
(мм)
R24
(мм)
S
(см)
21 10.09 С 3-5
{5}
20 км н/о +30.6 +8.5 25 +30 +30 жарко 1004.1 996.2 +26.1 +42.2
00 11.09 СЗ 2-3
{5}
20 км н/о +27.1 +8.1 30 +27 +27 жарко 1003.6 995.6
03 11.09 СЗ 3-4
{5}
19 км н/о +26.5 +7.3 30 +26 +26 жарко 1004.7 996.7 1
06 11.09 С 5-12
{12}
20 км н/о +37.5 +9.6 19 +36 +36 очень
жарко
1005.7 998.0 261
09 11.09 СВ 9-16
{17}
19 км н/о +41.2 +11.3 17 +40 +40 очень
жарко
1005.2 997.6 416
12 11.09 СВ 6-13
{20}
20 км н/о +42.1 +10.3 15 +41 +41 опасность
перегрева
1004.0 996.4 288
15 11.09 С 6-11
{15}
20 км н/о +38.5 +7.1 15 +36 +36 очень
жарко
1004.8 997.1 10
18 11.09 С 3-6
{15}
20 км н/о +33.3 +7.5 20 +32 +32 жарко 1006.0 998.2
21 11.09 С 3-6
{6}
20 км н/о +29.7 +8.5 27 +29 +29 жарко 1006.0 998.1 +25.6 +42.8
00 12.09 С 2-4
{6}
19 км н/о +26.8 +8.0 30 +27 +27 жарко 1005.2 997.2
03 12.09 СЗ 3-4
{5}
18 км н/о +24.5 +7.6 34 +25 +25 комфорт 1006.1 998.0 1
06 12.09 С 4-8
{9}
20 км н/о +36.1 +10.0 21 +35 +35 очень
жарко
1007.3 999.5 258
09 12.09 СВ 5-12
{13}
19 км н/о +41.1 +11.5 17 +40 +40 очень
жарко
1006.1 998.5 411
12 12.09 СВ 5-10
{15}
19 км н/о +41.2 +10.6 16 +40 +40 очень
жарко
1004.5 996.9 280
15 12.09 СВ 3-6
{12}
20 км н/о +37.9 +6.8 15 +35 +35 очень
жарко
1004.6 996.9 10
18 12.09 СЗ 1-2
{12}
19 км н/о +30.3 +7.7 24 +29 +29 жарко 1005.3 997.4
21 12.09 СЗ 1-2
{1}
14 км н/о +28.4 +8.0 28 +28 +28 жарко 1004.8 996.9 +24.0 +42.3
00 13.09 СЗ 2-3
{3}
15 км н/о +26.5 +8.2 31 +26 +26 жарко 1004.6 996.6
03 13.09 СЗ 2-4
{4}
18 км н/о +25.9 +7.4 31 +26 +26 жарко 1005.4 997.4 1
06 13.09 С 2-3
{4}
20 км н/о +36.7 +9.6 19 +35 +35 очень
жарко
1007.4 999.7 244
09 13.09 С 3-7
{7}
20 км н/о +41.9 +9.8 15 +40 +40 очень
жарко
1006.4 998.8 395
12 13.09 СЗ 3-6
{11}
20 км н/о +43.2 +9.0 13 +41 +41 опасность
перегрева
1004.6 997.0 279
15 13.09 В 2-6
{9}
20 км н/о +36.7 +8.9 18 +35 +35 очень
жарко
1004.9 997.2 8
18 13.09 ЮВ 1-1
{9}
15 км н/о +29.6 +7.9 26 +29 +29 жарко 1006.0 998.1
21 13.09 ЮЗ 1-1
{1}
15 км н/о +26.9 +8.6 32 +27 +27 жарко 1005.2 997.2 +25.2 +43.2
00 14.09 З 2-3
{3}
12 км н/о +26.8 +6.4 27 +26 +26 жарко 1005.3 997.3
03 14.09 СЗ 3-4
{4}
11 км н/о +27.4 +7.0 27 +27 +27 жарко 1006.6 998.6 1
06 14.09 С 1-3
{5}
19 км н/о +37.7 +12.8 23 +38 +38 очень
жарко
1007.9 1000.2 238
09 14.09 С 1-5
{5}
20 км н/о +43.0 +11.2 15 +42 +42 опасность
перегрева
1006.1 998.5 389
12 14.09 СВ 2-5
{8}
20 км н/о +42.0 +10.1 15 +40 +40 очень
жарко
1004.7 997.1 265
15 14.09 В 3-5
{8}
19 км н/о +38.9 +7.0 14 +36 +36 очень
жарко
1004.5 996.8 8
18 14.09 штиль 0-1
{8}
18 км н/о +30.3 +9.0 27 +30 +30 жарко 1005.6 997.7
21 14.09 З 2-2
{2}
16 км н/о +27.9 +9.3 31 +28 +28 жарко 1005.0 997.0 +26.1 +44.1
00 15.09 З 2-3
{4}
19 км н/о +28.0 +7.4 27 +27 +27 жарко 1004.8 996.8
03 15.09 З 2-3
{5}
19 км н/о +26.8 +7.3 29 +26 +26 жарко 1006.3 998.3
06 15.09 З 4-6
{6}
19 км н/о +38.7 +6.9 14 +36 +36 очень
жарко
1007.3 999.6 230
09 15.09 СЗ 3-6
{8}
19 км н/о +44.2 +10.3 14 +43 +43 опасность
перегрева
1006.0 998.4 396
12 15.09 С 1-3
{8}
19 км н/о +42.3 +10.8 16 +41 +41 опасность
перегрева
1004.3 996.7 264
15 15.09 Ю 2-4
{5}
12 км н/о +37.0 +11.6 22 +36 +36 очень
жарко
1004.5 996.8 8
18 15.09 Ю 1-3
{5}
18 км н/о +33.1 +11.7 27 +33 +33 жарко 1006.3 998.5
21 15.09 ЮЗ 2-3
{4}
19 км н/о +31.1 +14.0 35 +33 +33 душно 1005.7 997.8 +26.8 +46.0
00 16.09 З 3-5
{6}
18 км н/о +30.5 +9.3 27 +30 +30 жарко 1006.0 998.1
03 16.09 Ю 2-4
{6}
17 км н/о +29.3 +8.9 28 +29 +29 жарко 1007.2 999.3 1
06 16.09 ЮЗ 4-6
{6}
20 км н/о +40.9 +8.3 14 +39 +39 очень
жарко
1007.9 1000.3 235
09 16.09 СЗ 1-4
{7}
19 км н/о +42.5 +11.5 16 +42 +42 опасность
перегрева
1006.6 999.0 383
12 16.09 Ю 2-4
{7}
20 км н/о +43.0 +12.6 17 +43 +43 опасность
перегрева
1005.0 997.4 254
15 16.09 Ю 1-2
{5}
19 км н/о +34.6 +11.7 25 +34 +34 очень
жарко
1005.1 997.3 7
18 16.09 З 2-2
{5}
13 км н/о +31.0 +12.1 31 +31 +31 жарко 1006.2 998.3
21 16.09 З 1-2
{3}
18 км н/о +28.4 +10.6 33 +29 +29 жарко 1005.9 998.0 +28.0 +44.6
00 17.09 СЗ 1-2
{4}
14 км н/о +27.6 +9.2 31 +28 +28 жарко 1005.1 997.1
03 17.09 З 3-5
{5}
18 км н/о +29.1 +6.5 24 +28 +28 жарко 1006.0 998.1 1
06 17.09 С 2-4
{6}
14 км н/о +40.3 +6.9 13 +38 +38 очень
жарко
1006.6 998.9 230
09 17.09 СВ 2-4
{5}
19 км н/о +44.2 +12.6 16 +44 +44 опасность
перегрева
1005.0 997.5 378
12 17.09 В 2-6
{6}
19 км н/о +47.2 +5.3 8 +44 +44 опасность
перегрева
1003.1 995.6 238
15 17.09 В 2-5
{7}
18 км н/о +38.2 +8.8 17 +36 +36 очень
жарко
1003.1 995.4 4
18 17.09 СЗ 2-4
{7}
14 км н/о +36.1 +4.8 14 +33 +33 жарко 1005.0 997.3

 

Местоположение метеостанции Абдали (Кувейт): широта 30.08 долгота 47.70 высота над уровнем моря 70 м.

В архиве по умолчанию представлена погода в Абдали за последнюю неделю. Архивные данные за месяц целиком и за предыдущие месяцы, начиная с января 2011 года, Вы можете получить, выбрав интересующий диапазон дат из раскрывающегося списка и нажав кнопку "Ввод!".


*Определитесь, кто Вы:
робот инопланетянин человек

Внимание! Время в таблицах - всемирное. Для получения местного времени необходимо прибавить поправку, которая равна 3 ч.

Смотрите также архив погоды в соседних городах и на ближайших метеорологических станциях:

Погода на Метеостанции Sabriyah (Кувейт) (39 км)
Погода на Метеостанции Mintribah (Кувейт) (43 км)
Погода в Басре аэропорт (Ирак) (50 км)
Погода на Метеостанции Jal Aliyah (Кувейт) (54 км)
Погода в Басре (Ирак) (55 км)
Погода в Абадане (Иран) (62 км)
Погода на Бубияне (Кувейт) (74 км)
Погода в Эль-Фао (Ирак) (78 км)
Погода в Эль-Джахра (Кувейт) (85 км)
Погода Остров Файлака (Кувейт) (88 км)

Пояснения к столбцам:

Ветер - указаны скорость ветра в м/с - средняя за 10 мин, порывы в срок и между сроками (в фигурных скобках) и направление, откуда дует ветер: С - северный, СВ - северо-восточный, В - восточный, ЮВ - юго-восточный, Ю - южный, ЮЗ - юго-западный, З - западный, СЗ - северо-западный.
Видимость - горизонтальная дальность видимости в метрах или километрах. При видимости от 1 до 10 км при отсутствии осадков обычно наблюдается дымка, при ухудшении видимости до 1 км и менее - туман. В сухую погоду видимость может ухудшаться дымом, пылью или мглою.
Явления - указаны атмосферные явления, наблюдавшиеся в срок или в последний час перед сроком; фигурными скобками обозначены явления, наблюдавшиеся между сроками (за 1-3 часа до срока); квадратными скобками обозначены град или гололедные отложения с указанием их диаметра в мм.
Облачность - указаны через наклонную черту общая и нижняя облачность в баллах и высота нижней границы облаков в метрах; квадратными скобками обозначены формы облаков: Ci - перистые, Cs - перисто-слоистые, Cc - перисто-кучевые, Ac - высококучевые, As - высокослоистые, Sc - слоисто-кучевые, Ns - слоисто-дождевые, Cu - кучевые, Cb - кучево-дождевые. Подробнее классификацию облаков см. в Атласе облаков (PDF).
T - Температура воздуха - температура, измеренная на высоте 2 м над землей.
Td - Температура точки росы - температура, при понижении до которой содержащийся в воздухе водяной пар достигнет насыщения.
f - Относительная влажность воздуха - влажноcть воздуха, измеренная на высоте 2 м над землей.
Te - Эффективная температура - температура, которую ощущает одетый по сезону человек в тени. Характеристика душности погоды. При расчете учитывается влияние влажности воздуха и скорости ветра на теплоощущения человека.
Tes - Эффективная температура на солнце - температура, которую ощущает человек, с поправкой на солнечный нагрев. Характеристика знойности погоды. Зависит от высоты солнца над горизонтом, облачности и скорости ветра. Ночью, в пасмурную погоду, а также при ветре 12 м/с и более поправка равна нулю.
P - Атмосферное давление - приведенное к уровню моря атмосферное давление.
Po - Атмосферное давление - измеренное на уровне метеостанции атмосферное давление.
Tmin - Минимальная температура - минимум температуры воздуха на высоте 2 м над землей.
Tmax - Максимальная температура - максимум температуры воздуха на высоте 2 м над землей.
R - Количество осадков - Количество выпавших осадков за период времени, мм. При наведении курсора мыши на число - период времени, за который выпало указанное количество осадков.
R24 - Количество осадков - Количество выпавших осадков за 24 часа, мм.
S - Снежный покров - Высота снежного покрова, см. При наведении курсора мыши на число - состояние снежного покрова и степень покрытия местности в баллах.